Weather History for YSSY - October, 2013

Change the Weather History Date:

Thursday, October 31, 2013

  Actual Average Record
Temperature  
Mean Temperature 68 °F -  
Max Temperature 75 °F 75 °F - ()
Min Temperature 61 °F 59 °F - ()
Cooling Degree Days 3    
Growing Degree Days 18 (Base 50)    
Moisture  
Dew Point 52 °F    
Average Humidity 57    
Maximum Humidity 73    
Minimum Humidity 29    
Precipitation  
Precipitation 0.00 in 0.13 in - ()
Sea Level Pressure  
Sea Level Pressure 30.14 in    
Wind  
Wind Speed 8 mph ()    
Max Wind Speed 20 mph    
Max Gust Speed -    
Visibility 7.6 miles    
Events      
T = Trace of Precipitation, MM = Missing Value Source: Averaged Metar Reports

Daily Weather History Graph

Daily Weather History Graph

Search for Another Location

Airport or City:

Trip Planner

Search our weather history database for the weather conditions in past years. The results will help you decide how hot, cold, wet, or windy it might be!

Date:

Astronomy

Oct. 31, 2013 Rise Set
Actual Time 5:56 AM AEDT 7:22 PM AEDT
Civil Twilight 5:29 AM AEDT 7:48 PM AEDT
Nautical Twilight 4:58 AM AEDT 8:20 PM AEDT
Astronomical Twilight 4:24 AM AEDT 8:53 PM AEDT
Moon 3:35 AM AEDT (10/31) 4:00 PM AEDT (10/31)
Length of Visible Light 14h 19m
Length of Day
13h 26m
Waning Crescent, 14% of the Moon is Illuminated
Oct 31
Waning Crescent
Nov 3
New
Nov 10
First Quarter
Nov 18
Full
Nov 26
Last Quarter

Hourly Weather History & Observations

Time (AEDT) Temp. Dew Point Humidity Pressure Visibility Wind Dir Wind Speed Gust Speed Precip Events Conditions
12:00 AM 64 °F 52 °F 55% 30.14 in 16 mi East 3.5 mph - -   Partly Cloudy
12:00 AM 64.4 °F 51.8 °F 64% 30.12 in 6.2 mi East 3.5 mph - N/A   Mostly Cloudy
12:30 AM 64.4 °F 51.8 °F 64% 30.12 in 6.2 mi South 4.6 mph - N/A   Mostly Cloudy
1:00 AM 63 °F 54 °F 64% 30.13 in - South 5.8 mph - -  
1:00 AM 62.6 °F 53.6 °F 72% 30.12 in 6.2 mi South 5.8 mph - N/A   Mostly Cloudy
1:30 AM 62.6 °F 53.6 °F 72% 30.09 in 6.2 mi SW 6.9 mph - N/A   Mostly Cloudy
2:00 AM 63 °F 53 °F 60% 30.12 in - West 6.9 mph - -  
2:00 AM 62.6 °F 51.8 °F 68% 30.09 in 6.2 mi West 6.9 mph - N/A   Mostly Cloudy
2:30 AM 62.6 °F 51.8 °F 68% 30.09 in 6.2 mi WNW 5.8 mph - N/A   Mostly Cloudy
3:00 AM 62 °F 52 °F 62% 30.11 in 16 mi West 6.9 mph - -   Haze
3:00 AM 62.6 °F 51.8 °F 68% 30.09 in 6.2 mi West 6.9 mph - N/A   Mostly Cloudy
3:30 AM 62.6 °F 51.8 °F 68% 30.09 in 6.2 mi WSW 6.9 mph - N/A   Mostly Cloudy
4:00 AM 62 °F 52 °F 62% 30.10 in - WSW 5.8 mph - -  
4:00 AM 62.6 °F 51.8 °F 68% 30.09 in 6.2 mi WSW 5.8 mph - N/A   Mostly Cloudy
4:30 AM 62.6 °F 51.8 °F 68% 30.09 in 6.2 mi West 5.8 mph - N/A   Mostly Cloudy
5:00 AM 62 °F 52 °F 62% 30.11 in - WSW 4.6 mph - -  
5:00 AM 62.6 °F 51.8 °F 68% 30.09 in 6.2 mi WSW 4.6 mph - N/A   Mostly Cloudy
5:30 AM 62.6 °F 51.8 °F 68% 30.12 in 6.2 mi WNW 5.8 mph - N/A   Mostly Cloudy
6:00 AM 62 °F 52 °F 61% 30.13 in 12 mi WNW 6.9 mph - -   Haze
6:00 AM 62.6 °F 51.8 °F 68% 30.12 in 6.2 mi WNW 6.9 mph - N/A   Mostly Cloudy
6:30 AM 64.4 °F 51.8 °F 64% 30.12 in 6.2 mi West 6.9 mph - N/A   Mostly Cloudy
7:00 AM 65 °F 51 °F 51% 30.15 in - NW 9.2 mph - -  
7:00 AM 64.4 °F 51.8 °F 64% 30.12 in 6.2 mi NW 9.2 mph - N/A   Scattered Clouds
7:30 AM 64.4 °F 51.8 °F 64% 30.15 in 6.2 mi NW 8.1 mph - N/A   Mostly Cloudy
8:00 AM 64 °F 51 °F 54% 30.16 in - WNW 6.9 mph - -  
8:00 AM 64.4 °F 51.8 °F 64% 30.15 in 6.2 mi WNW 6.9 mph - N/A   Scattered Clouds
8:30 AM 66.2 °F 50.0 °F 56% 30.15 in 6.2 mi West 6.9 mph - N/A   Scattered Clouds
9:00 AM 68 °F 50 °F 42% 30.18 in 12 mi West 6.9 mph - -   Partly Cloudy
9:00 AM 68.0 °F 50.0 °F 52% 30.15 in 6.2 mi West 6.9 mph - N/A   Scattered Clouds
9:30 AM 68.0 °F 50.0 °F 52% 30.18 in 6.2 mi WNW 6.9 mph - N/A   Scattered Clouds
10:00 AM 67 °F 50 °F 44% 30.18 in - WNW 4.6 mph - -  
10:00 AM 66.2 °F 50.0 °F 56% 30.15 in 6.2 mi WNW 4.6 mph - N/A   Mostly Cloudy
10:30 AM 69.8 °F 50.0 °F 49% 30.15 in 6.2 mi NNW 5.8 mph - N/A   Scattered Clouds
11:00 AM 73 °F 47 °F 29% 30.15 in - NNE 6.9 mph - -  
11:00 AM 73.4 °F 48.2 °F 41% 30.15 in 6.2 mi NNE 6.9 mph - N/A   Scattered Clouds
11:30 AM 73.4 °F 48.2 °F 41% 30.12 in 6.2 mi North 6.9 mph - N/A   Scattered Clouds
12:00 PM 75 °F 50 °F 31% 30.14 in 16 mi ESE 12.7 mph - -   Haze
12:00 PM 75.2 °F 50.0 °F 41% 30.12 in 6.2 mi ESE 12.7 mph - N/A   Scattered Clouds
12:30 PM 71.6 °F 51.8 °F 50% 30.12 in 6.2 mi ESE 17.3 mph - N/A   Scattered Clouds
1:00 PM 72 °F 50 °F 35% 30.13 in - East 19.6 mph - -  
1:00 PM 71.6 °F 50.0 °F 46% 30.12 in 6.2 mi East 19.6 mph - N/A   Scattered Clouds
1:30 PM 71.6 °F 50.0 °F 46% 30.12 in 6.2 mi East 19.6 mph - N/A   Partly Cloudy
2:00 PM 71 °F 51 °F 38% 30.12 in - East 19.6 mph - -  
2:00 PM 71.6 °F 51.8 °F 50% 30.09 in 6.2 mi East 19.6 mph - N/A   Partly Cloudy
2:30 PM 69.8 °F 51.8 °F 53% 30.09 in 6.2 mi East 18.4 mph - N/A   Partly Cloudy
3:00 PM 70 °F 52 °F 43% 30.11 in 19 mi East 17.3 mph - -   Haze
3:00 PM 69.8 °F 51.8 °F 53% 30.09 in 6.2 mi East 17.3 mph - N/A   Partly Cloudy
3:30 PM 69.8 °F 51.8 °F 53% 30.09 in - East 17.3 mph - N/A   Clear
4:00 PM 70 °F 53 °F 45% 30.10 in - East 16.1 mph - -  
4:00 PM 69.8 °F 53.6 °F 56% 30.09 in - East 16.1 mph - N/A   Clear
4:30 PM 69.8 °F 53.6 °F 56% 30.09 in 6.2 mi East 17.3 mph - N/A   Partly Cloudy
5:00 PM 69 °F 53 °F 45% 30.11 in - ESE 16.1 mph - -  
5:00 PM 69.8 °F 51.8 °F 53% 30.09 in 6.2 mi ESE 16.1 mph - N/A   Partly Cloudy
5:30 PM 69.8 °F 53.6 °F 56% 30.09 in 6.2 mi East 18.4 mph - N/A   Scattered Clouds
6:00 PM 69 °F 51 °F 42% 30.13 in 19 mi ESE 17.3 mph - -   Partly Cloudy
6:00 PM 68.0 °F 51.8 °F 56% 30.12 in 6.2 mi ESE 17.3 mph - N/A   Partly Cloudy
6:30 PM 68.0 °F 50.0 °F 52% 30.12 in 6.2 mi ESE 16.1 mph - N/A   Partly Cloudy
7:00 PM 66 °F 51 °F 48% 30.15 in - ESE 13.8 mph - -  
7:00 PM 66.2 °F 51.8 °F 60% 30.15 in 6.2 mi ESE 13.8 mph - N/A   Mostly Cloudy
7:30 PM 66.2 °F 51.8 °F 60% 30.15 in 6.2 mi SE 15.0 mph - N/A   Mostly Cloudy
8:00 PM 66 °F 54 °F 57% 30.19 in - SSE 15.0 mph - -  
8:00 PM 66.2 °F 53.6 °F 64% 30.18 in 6.2 mi SSE 15.0 mph - N/A   Mostly Cloudy
8:30 PM 64.4 °F 55.4 °F 73% 30.18 in 6.2 mi SE 13.8 mph - N/A   Mostly Cloudy
9:00 PM 65 °F 54 °F 59% 30.21 in 16 mi SE 15.0 mph - -   Partly Cloudy
9:00 PM 64.4 °F 53.6 °F 68% 30.21 in 6.2 mi SE 15.0 mph - N/A   Mostly Cloudy
9:30 PM 64.4 °F 55.4 °F 73% 30.21 in 6.2 mi SE 15.0 mph - N/A   Mostly Cloudy
10:00 PM 64 °F 55 °F 64% 30.22 in - SE 15.0 mph - -  
10:00 PM 64.4 °F 55.4 °F 73% 30.21 in 6.2 mi SE 15.0 mph - N/A   Mostly Cloudy
10:30 PM 64.4 °F 53.6 °F 68% 30.21 in 6.2 mi SSE 12.7 mph - N/A   Mostly Cloudy
11:00 PM 65 °F 54 °F 59% 30.23 in - SE 11.5 mph - -  
11:00 PM 64.4 °F 53.6 °F 68% 30.21 in 6.2 mi SE 11.5 mph - N/A   Mostly Cloudy
11:30 PM 64.4 °F 53.6 °F 68% 30.21 in 6.2 mi SE 11.5 mph - N/A   Mostly Cloudy